Showing default

SIGI, 62632

Orbit data source: Space-Track

SIGI, 62632 is a German payload satellite in SSO that was launched on Tue, 14 Jan 2025 UTC via an FALCON 9 launch vehicle from the Air Force Western Test Range (AFWTR). Payload-class satellites include a variety of spacecraft equipped with specific instruments for various scientific and technological missions. These include communications satellites like Starlink; space stations such as the ISS; scientific satellites like the Hubble; Earth observation satellites from companies like Planet Labs, Umbra, and HawkEye 360; GPS; miniature CubeSats for education and research; and military/defense satellites.

Loading next visibility...
Identifier
62632, 2025-009Z
Orbit
SSO
Last TLE update
2 days ago
Origin
Manufacturer
REFLEX
Mission
Operational Commercial Communications
Bus & Motor
OMNIFLEX, Unknown motor
Mass
109 kg wet, 109 kg dry
Launch date (UTC)
2025-01-14 (3 months ago)
Launch vehicle
FALCON 9
Launch site
Air Force Western Test Range (AFWTR)
Object type
Payload
Rocket body
Debris
Shape & HBR
Box + 2 Pan, 3 m
Radar Cross Section
1.176 m², Medium (>0.1 m² and < 1m²)

Expand to show TLE details & history

TLE from 2 days ago
0 SIGI
1 62632U 25009Z   25118.90645806  .00008768  00000-0  41800-3 0  9995
2 62632  97.4314 199.8665 0002594 348.1272  11.9901 15.19333902 15799
Epoch: 2025-04-28T21:45Z
Definitive object data (Epoch: 2025-04-28T21:45:17.976Z)
Latitude
-0.00003°
Longitude
16.42784°
Altitude
509.194 km
Speed
7.61 km/s
True Right ascension
13h 19m 27s
True Declination
0° 00' 00"
Sunlit
Object was in full shadow at TLE epoch
Visualization TLE readout
Latitude
18.58082°
Longitude
15.42246°
Altitude
508.878 km
Speed
7.612 km/s
Apparent Right ascension
10h 18m 40s
Apparent Declination
-16° 13' 26"
Sunlit
Object is in full shadow
Visualization observer readout
Local Sidereal Time
17:45:26
Azimuth
270.862° WNW
Elevation
-26.838°
Doppler factor
1
Orbital elements
Apogee altitude
506.606 km
Perigee altitude
503.035 km
Semi-major axis
6,882.957 km
Eccentricity
0.0002594
Inclination
97.4314°
RAAN
199.8665°
Arg. of periapsis
348.1272°
True anomaly
11.99628°
Mean anomaly
11.9901°
Eccentric anomaly
11.99319°
Mean motion
3.80085 °/min
BSTAR
0.000418
Orbital period
94.72 mins
Loading maneuver chart data...
Loading SW <> Apogee altitude chart data...
Loading historical data...
Loading historical data...
Loading historical data...
Loading historical data...
Loading historical data...
Loading historical data...
Loading historical data...

SIGI Visibility forecast

Observer location: undefined°, undefined°

Span
Click to sort rows by Start time (UTC) header in descending order
Start Az.
Max El. time (UTC)
Max El. Az.
Max El.
End time (UTC)
End Az.
5 mins2025-04-30 18:35:28.720Z346.002° N2025-04-30 18:37:28.720Z274.02° WNW35.63°2025-04-30 18:40:28.720Z213.653° SW
5 mins2025-05-01 05:13:28.720Z149.044° SSE2025-05-01 05:15:28.720Z60.688° ENE41.582°2025-05-01 05:18:28.720Z355.968° N
|